Location: Bailleul
(50.3375°N, 2.8513°E)
Time: 20:57:37
(UTC+00:00)

Lacrosse 5 rocket - Pass Details

Date: 19 April 2021
Orbit: 460 x 635 km, 57.0° (Epoch: 17 May)

Event Time Altitude Azimuth Distance (km) Brightness Sun altitude
Rises 22:37:34 0° 300° (WNW) 2,774 5.6 -26.3°
Reaches altitude 10° 22:39:48 10° 305° (NW) 1,903 4.7 -26.4°
Enters shadow 22:43:49 56° 7° (N) 715 2.0 -26.6°
